contact:dominique.lefevre@mio.osupytheas.fr, maurice.libes@osupytheas.fr, didier.mallarino@osupytheas.fr
Project:EMSO http://www.emso-fr.org/EMSO-France
Depth: 2436.0 m
Title:EMSO Ligure Ouest : Data MII capteur CSTAR
DateTime,Latitude,Longitude,Instrument_Serial,Reference_Counts,Signal_Counts,Corrected_Signal_raw_counts,Calculated_Beam_c_inverse_meters,Internal_thermistor_counts
DateTime,Latitude,Longitude,Instrument_Serial,Reference_Counts,Signal_Counts,Corrected_Signal_raw_counts,Calculated_Beam_c_inverse_meters,Internal_thermistor_counts
2023-07-08T00:02:52,42.805,6.029,CST-1368DR,4263,4694,11685,01.160,552
2023-07-08T00:05:54,42.805,6.029,CST-1368DR,4263,4689,11674,01.164,552
2023-07-08T00:08:55,42.805,6.029,CST-1368DR,4263,4690,11675,01.163,552
2023-07-08T00:11:57,42.805,6.029,CST-1368DR,4263,4689,11674,01.164,552
2023-07-08T00:14:58,42.805,6.029,CST-1368DR,4263,4690,11676,01.163,552
2023-07-08T00:18:00,42.805,6.029,CST-1368DR,4263,4690,11675,01.163,552
2023-07-08T00:21:02,42.805,6.029,CST-1368DR,4263,4689,11673,01.164,552
2023-07-08T00:24:03,42.805,6.029,CST-1368DR,4263,4690,11677,01.163,552
2023-07-08T00:27:05,42.805,6.029,CST-1368DR,4263,4692,11681,01.161,552
2023-07-08T00:30:06,42.805,6.029,CST-1368DR,4263,4690,11675,01.163,552
2023-07-08T00:33:08,42.805,6.029,CST-1368DR,4263,4690,11675,01.163,552
2023-07-08T00:36:09,42.805,6.029,CST-1368DR,4263,4690,11675,01.163,552
2023-07-08T00:39:11,42.805,6.029,CST-1368DR,4263,4690,11676,01.163,552
2023-07-08T00:42:13,42.805,6.029,CST-1368DR,4263,4691,11679,01.162,552
2023-07-08T00:45:14,42.805,6.029,CST-1368DR,4263,4689,11674,01.164,552
2023-07-08T00:48:16,42.805,6.029,CST-1368DR,4263,4691,11678,01.162,552
2023-07-08T00:51:17,42.805,6.029,CST-1368DR,4263,4689,11674,01.164,552
2023-07-08T00:54:19,42.805,6.029,CST-1368DR,4263,4690,11676,01.163,552
2023-07-08T00:57:21,42.805,6.029,CST-1368DR,4263,4689,11674,01.164,552
2023-07-08T01:00:22,42.805,6.029,CST-1368DR,4263,4688,11672,01.164,552
2023-07-08T01:03:24,42.805,6.029,CST-1368DR,4263,4690,11676,01.163,552
2023-07-08T01:06:25,42.805,6.029,CST-1368DR,4263,4690,11675,01.163,552
2023-07-08T01:09:27,42.805,6.029,CST-1368DR,4263,4690,11677,01.163,552
2023-07-08T01:12:28,42.805,6.029,CST-1368DR,4263,4690,11676,01.163,552
2023-07-08T01:15:30,42.805,6.029,CST-1368DR,4263,4689,11674,01.164,552
2023-07-08T01:18:32,42.805,6.029,CST-1368DR,4263,4692,11680,01.162,552
2023-07-08T01:21:33,42.805,6.029,CST-1368DR,4263,4691,11678,01.162,552
2023-07-08T01:24:35,42.805,6.029,CST-1368DR,4263,4690,11675,01.163,552
2023-07-08T01:27:36,42.805,6.029,CST-1368DR,4263,4690,11676,01.163,552
2023-07-08T01:30:38,42.805,6.029,CST-1368DR,4263,4690,11675,01.163,552
2023-07-08T01:33:39,42.805,6.029,CST-1368DR,4263,4692,11681,01.161,552
2023-07-08T01:36:41,42.805,6.029,CST-1368DR,4263,4689,11673,01.164,552
2023-07-08T01:39:43,42.805,6.029,CST-1368DR,4263,4690,11675,01.163,552
2023-07-08T01:42:44,42.805,6.029,CST-1368DR,4263,4691,11678,01.162,552
2023-07-08T01:45:46,42.805,6.029,CST-1368DR,4263,4689,11673,01.164,552
2023-07-08T01:48:47,42.805,6.029,CST-1368DR,4263,4690,11676,01.163,552
2023-07-08T01:51:49,42.805,6.029,CST-1368DR,4263,4690,11676,01.163,552
2023-07-08T01:54:50,42.805,6.029,CST-1368DR,4263,4690,11675,01.163,552
2023-07-08T01:57:52,42.805,6.029,CST-1368DR,4263,4690,11675,01.163,552
2023-07-08T02:00:54,42.805,6.029,CST-1368DR,4263,4689,11673,01.164,552
2023-07-08T02:03:55,42.805,6.029,CST-1368DR,4263,4693,11684,01.160,552
2023-07-08T02:06:57,42.805,6.029,CST-1368DR,4263,4698,11697,01.156,552
2023-07-08T02:09:58,42.805,6.029,CST-1368DR,4263,4693,11684,01.160,552
2023-07-08T02:13:00,42.805,6.029,CST-1368DR,4263,4697,11693,01.157,552
2023-07-08T02:16:02,42.805,6.029,CST-1368DR,4263,4691,11678,01.162,552
2023-07-08T02:19:03,42.805,6.029,CST-1368DR,4263,4692,11680,01.162,552
2023-07-08T02:22:05,42.805,6.029,CST-1368DR,4263,4693,11684,01.160,552
2023-07-08T02:25:06,42.805,6.029,CST-1368DR,4263,4692,11681,01.161,552
2023-07-08T02:28:08,42.805,6.029,CST-1368DR,4263,4692,11680,01.162,552
2023-07-08T02:31:09,42.805,6.029,CST-1368DR,4263,4696,11690,01.158,552
2023-07-08T02:34:11,42.805,6.029,CST-1368DR,4263,4693,11684,01.160,552
2023-07-08T02:37:13,42.805,6.029,CST-1368DR,4263,4696,11690,01.158,552
2023-07-08T02:40:14,42.805,6.029,CST-1368DR,4263,4695,11688,01.159,552
2023-07-08T02:43:16,42.805,6.029,CST-1368DR,4263,4691,11679,01.162,552
2023-07-08T02:46:17,42.805,6.029,CST-1368DR,4263,4692,11681,01.161,552
2023-07-08T02:49:19,42.805,6.029,CST-1368DR,4263,4692,11680,01.162,552
2023-07-08T02:52:20,42.805,6.029,CST-1368DR,4263,4694,11687,01.159,552
2023-07-08T02:55:22,42.805,6.029,CST-1368DR,4263,4691,11678,01.162,552
2023-07-08T02:58:24,42.805,6.029,CST-1368DR,4263,4691,11678,01.162,552
2023-07-08T03:01:25,42.805,6.029,CST-1368DR,4263,4690,11675,01.163,552
2023-07-08T03:04:27,42.805,6.029,CST-1368DR,4263,4691,11679,01.162,552
2023-07-08T03:07:28,42.805,6.029,CST-1368DR,4263,4690,11677,01.163,552
2023-07-08T03:10:30,42.805,6.029,CST-1368DR,4263,4696,11690,01.158,552
2023-07-08T03:13:32,42.805,6.029,CST-1368DR,4263,4691,11679,01.162,552
2023-07-08T03:16:33,42.805,6.029,CST-1368DR,4263,4691,11679,01.162,552
2023-07-08T03:19:35,42.805,6.029,CST-1368DR,4263,4690,11677,01.163,552
2023-07-08T03:22:36,42.805,6.029,CST-1368DR,4263,4690,11676,01.163,552
2023-07-08T03:25:38,42.805,6.029,CST-1368DR,4263,4691,11679,01.162,552
2023-07-08T03:28:39,42.805,6.029,CST-1368DR,4263,4691,11679,01.162,552
2023-07-08T03:31:41,42.805,6.029,CST-1368DR,4263,4691,11678,01.162,552
2023-07-08T03:34:43,42.805,6.029,CST-1368DR,4263,4692,11681,01.161,552
2023-07-08T03:37:44,42.805,6.029,CST-1368DR,4263,4691,11679,01.162,552
2023-07-08T03:40:46,42.805,6.029,CST-1368DR,4263,4694,11685,01.160,552
2023-07-08T03:43:47,42.805,6.029,CST-1368DR,4263,4697,11693,01.157,552
2023-07-08T03:46:49,42.805,6.029,CST-1368DR,4263,4693,11683,01.161,552
2023-07-08T03:49:51,42.805,6.029,CST-1368DR,4263,4699,11697,01.156,552
2023-07-08T03:52:52,42.805,6.029,CST-1368DR,4263,4691,11679,01.162,552
2023-07-08T03:55:54,42.805,6.029,CST-1368DR,4263,4701,11703,01.154,552
2023-07-08T03:58:55,42.805,6.029,CST-1368DR,4263,4695,11687,01.159,552
2023-07-08T04:01:57,42.805,6.029,CST-1368DR,4263,4692,11680,01.162,552
2023-07-08T04:04:58,42.805,6.029,CST-1368DR,4263,4690,11676,01.163,552
2023-07-08T04:08:00,42.805,6.029,CST-1368DR,4263,4694,11685,01.160,552
2023-07-08T04:11:02,42.805,6.029,CST-1368DR,4263,4693,11682,01.161,552
2023-07-08T04:14:03,42.805,6.029,CST-1368DR,4263,4694,11685,01.160,552
2023-07-08T04:17:05,42.805,6.029,CST-1368DR,4263,4691,11679,01.162,552
2023-07-08T04:20:06,42.805,6.029,CST-1368DR,4263,4692,11681,01.161,552
2023-07-08T04:23:08,42.805,6.029,CST-1368DR,4263,4693,11683,01.161,552
2023-07-08T04:26:09,42.805,6.029,CST-1368DR,4263,4692,11682,01.161,552
2023-07-08T04:29:11,42.805,6.029,CST-1368DR,4263,4699,11697,01.156,552
2023-07-08T04:32:13,42.805,6.029,CST-1368DR,4263,4694,11685,01.160,552
2023-07-08T04:35:14,42.805,6.029,CST-1368DR,4263,4692,11680,01.162,552
2023-07-08T04:38:16,42.805,6.029,CST-1368DR,4263,4699,11699,01.155,552
2023-07-08T04:41:17,42.805,6.029,CST-1368DR,4263,4692,11682,01.161,552
2023-07-08T04:44:19,42.805,6.029,CST-1368DR,4263,4695,11688,01.159,552
2023-07-08T04:47:21,42.805,6.029,CST-1368DR,4263,4692,11682,01.161,552
2023-07-08T04:50:22,42.805,6.029,CST-1368DR,4263,4692,11680,01.162,552
2023-07-08T04:53:24,42.805,6.029,CST-1368DR,4263,4691,11678,01.162,552
2023-07-08T04:56:25,42.805,6.029,CST-1368DR,4263,4691,11679,01.162,552
2023-07-08T04:59:27,42.805,6.029,CST-1368DR,4263,4692,11681,01.161,552
2023-07-08T05:02:28,42.805,6.029,CST-1368DR,4263,4694,11687,01.159,552
2023-07-08T05:05:30,42.805,6.029,CST-1368DR,4263,4692,11680,01.162,552
2023-07-08T05:08:32,42.805,6.029,CST-1368DR,4263,4692,11680,01.162,552
2023-07-08T05:11:33,42.805,6.029,CST-1368DR,4263,4699,11698,01.156,552
2023-07-08T05:14:35,42.805,6.029,CST-1368DR,4263,4692,11682,01.161,552
2023-07-08T05:17:36,42.805,6.029,CST-1368DR,4263,4695,11688,01.159,552
2023-07-08T05:20:38,42.805,6.029,CST-1368DR,4263,4700,11700,01.155,552
2023-07-08T05:23:39,42.805,6.029,CST-1368DR,4263,4700,11702,01.154,552
2023-07-08T05:26:41,42.805,6.029,CST-1368DR,4263,4694,11687,01.159,552
2023-07-08T05:29:43,42.805,6.029,CST-1368DR,4263,4692,11681,01.161,552
2023-07-08T05:32:44,42.805,6.029,CST-1368DR,4263,4695,11688,01.159,552
2023-07-08T05:35:46,42.805,6.029,CST-1368DR,4263,4693,11683,01.161,552
2023-07-08T05:38:47,42.805,6.029,CST-1368DR,4263,4694,11685,01.160,552
2023-07-08T05:41:49,42.805,6.029,CST-1368DR,4263,4693,11682,01.161,552
2023-07-08T05:44:51,42.805,6.029,CST-1368DR,4263,4691,11679,01.162,552
2023-07-08T05:47:52,42.805,6.029,CST-1368DR,4263,4695,11687,01.159,552
2023-07-08T05:50:54,42.805,6.029,CST-1368DR,4263,4694,11687,01.159,552
2023-07-08T05:53:55,42.805,6.029,CST-1368DR,4263,4694,11687,01.159,552
2023-07-08T05:56:57,42.805,6.029,CST-1368DR,4263,4693,11684,01.160,552
2023-07-08T05:59:58,42.805,6.029,CST-1368DR,4263,4692,11680,01.162,552
2023-07-08T06:03:00,42.805,6.029,CST-1368DR,4263,4692,11680,01.162,552
2023-07-08T06:06:02,42.805,6.029,CST-1368DR,4263,4692,11682,01.161,552
2023-07-08T06:09:03,42.805,6.029,CST-1368DR,4263,4692,11681,01.161,552
2023-07-08T06:12:05,42.805,6.029,CST-1368DR,4263,4690,11677,01.163,552
2023-07-08T06:15:06,42.805,6.029,CST-1368DR,4263,4692,11681,01.161,552
2023-07-08T06:18:08,42.805,6.029,CST-1368DR,4263,4699,11698,01.156,552
2023-07-08T06:21:09,42.805,6.029,CST-1368DR,4263,4691,11679,01.162,552
2023-07-08T06:24:11,42.805,6.029,CST-1368DR,4263,4691,11679,01.162,552
2023-07-08T06:27:13,42.805,6.029,CST-1368DR,4263,4692,11680,01.162,552
2023-07-08T06:30:14,42.805,6.029,CST-1368DR,4263,4691,11679,01.162,552
2023-07-08T06:33:16,42.805,6.029,CST-1368DR,4263,4691,11679,01.162,552
2023-07-08T06:36:17,42.805,6.029,CST-1368DR,4263,4695,11687,01.159,552
2023-07-08T06:39:19,42.805,6.029,CST-1368DR,4263,4692,11681,01.161,552
2023-07-08T06:42:21,42.805,6.029,CST-1368DR,4263,4692,11680,01.162,552
2023-07-08T06:45:22,42.805,6.029,CST-1368DR,4263,4695,11688,01.159,552
2023-07-08T06:48:24,42.805,6.029,CST-1368DR,4263,4693,11684,01.160,553
2023-07-08T06:51:25,42.805,6.029,CST-1368DR,4263,4700,11700,01.155,552
2023-07-08T06:54:27,42.805,6.029,CST-1368DR,4263,4691,11679,01.162,552
2023-07-08T06:57:28,42.805,6.029,CST-1368DR,4263,4693,11683,01.161,552
2023-07-08T07:00:30,42.805,6.029,CST-1368DR,4263,4696,11692,01.158,552
2023-07-08T07:03:32,42.805,6.029,CST-1368DR,4263,4692,11680,01.162,552
2023-07-08T07:06:33,42.805,6.029,CST-1368DR,4263,4694,11685,01.160,552
2023-07-08T07:09:35,42.805,6.029,CST-1368DR,4263,4691,11679,01.162,552
2023-07-08T07:12:36,42.805,6.029,CST-1368DR,4263,4692,11681,01.161,552
2023-07-08T07:15:38,42.805,6.029,CST-1368DR,4263,4696,11691,01.158,552
2023-07-08T07:18:39,42.805,6.029,CST-1368DR,4263,4697,11692,01.158,552
2023-07-08T07:21:41,42.805,6.029,CST-1368DR,4263,4691,11679,01.162,552
2023-07-08T07:24:43,42.805,6.029,CST-1368DR,4263,4698,11695,01.157,552
2023-07-08T07:27:44,42.805,6.029,CST-1368DR,4263,4693,11684,01.160,552
2023-07-08T07:30:46,42.805,6.029,CST-1368DR,4263,4693,11682,01.161,552
2023-07-08T07:33:47,42.805,6.029,CST-1368DR,4263,4692,11682,01.161,552
2023-07-08T07:36:49,42.805,6.029,CST-1368DR,4263,4694,11687,01.159,552
2023-07-08T07:39:51,42.805,6.029,CST-1368DR,4263,4692,11680,01.162,552
2023-07-08T07:42:52,42.805,6.029,CST-1368DR,4263,4693,11684,01.160,552
2023-07-08T07:45:54,42.805,6.029,CST-1368DR,4263,4691,11679,01.162,552
2023-07-08T07:48:55,42.805,6.029,CST-1368DR,4263,4690,11675,01.163,552
2023-07-08T07:51:57,42.805,6.029,CST-1368DR,4263,4691,11679,01.162,552
2023-07-08T07:54:58,42.805,6.029,CST-1368DR,4263,4692,11680,01.162,552
2023-07-08T07:58:00,42.805,6.029,CST-1368DR,4263,4693,11682,01.161,552
2023-07-08T08:01:02,42.805,6.029,CST-1368DR,4263,4697,11693,01.157,552
2023-07-08T08:04:03,42.805,6.029,CST-1368DR,4263,4692,11681,01.161,552
2023-07-08T08:07:05,42.805,6.029,CST-1368DR,4263,4693,11683,01.161,552
2023-07-08T08:10:06,42.805,6.029,CST-1368DR,4263,4693,11684,01.160,552
2023-07-08T08:13:08,42.805,6.029,CST-1368DR,4263,4691,11679,01.162,552
2023-07-08T08:16:09,42.805,6.029,CST-1368DR,4263,4693,11684,01.160,552
2023-07-08T08:19:11,42.805,6.029,CST-1368DR,4263,4695,11688,01.159,552
2023-07-08T08:22:13,42.805,6.029,CST-1368DR,4263,4691,11679,01.162,552
2023-07-08T08:25:14,42.805,6.029,CST-1368DR,4263,4692,11682,01.161,552
2023-07-08T08:28:16,42.805,6.029,CST-1368DR,4263,4692,11680,01.162,552
2023-07-08T08:31:18,42.805,6.029,CST-1368DR,4263,4695,11689,01.159,552
2023-07-08T08:34:19,42.805,6.029,CST-1368DR,4263,4700,11701,01.154,552
2023-07-08T08:37:21,42.805,6.029,CST-1368DR,4263,4696,11692,01.158,552
2023-07-08T08:40:23,42.805,6.029,CST-1368DR,4263,4690,11675,01.163,552
2023-07-08T08:43:24,42.805,6.029,CST-1368DR,4263,4692,11680,01.162,552
2023-07-08T08:46:26,42.805,6.029,CST-1368DR,4263,4693,11682,01.161,552
2023-07-08T08:49:27,42.805,6.029,CST-1368DR,4263,4694,11685,01.160,552
2023-07-08T08:52:29,42.805,6.029,CST-1368DR,4263,4692,11681,01.161,552
2023-07-08T08:55:31,42.805,6.029,CST-1368DR,4263,4695,11687,01.159,552
2023-07-08T08:58:32,42.805,6.029,CST-1368DR,4263,4691,11679,01.162,552
2023-07-08T09:01:34,42.805,6.029,CST-1368DR,4263,4696,11692,01.158,552
2023-07-08T09:04:35,42.805,6.029,CST-1368DR,4263,4692,11680,01.162,552
2023-07-08T09:07:37,42.805,6.029,CST-1368DR,4263,4691,11678,01.162,552
2023-07-08T09:10:38,42.805,6.029,CST-1368DR,4263,4690,11677,01.163,552
2023-07-08T09:13:40,42.805,6.029,CST-1368DR,4263,4691,11679,01.162,552
2023-07-08T09:16:42,42.805,6.029,CST-1368DR,4263,4690,11675,01.163,552
2023-07-08T09:19:43,42.805,6.029,CST-1368DR,4263,4690,11676,01.163,552
2023-07-08T09:22:45,42.805,6.029,CST-1368DR,4263,4689,11674,01.164,552
2023-07-08T09:25:46,42.805,6.029,CST-1368DR,4263,4689,11673,01.164,552
2023-07-08T09:28:48,42.805,6.029,CST-1368DR,4263,4689,11674,01.164,552
2023-07-08T09:31:49,42.805,6.029,CST-1368DR,4263,4687,11667,01.166,552
2023-07-08T09:34:51,42.805,6.029,CST-1368DR,4263,4689,11672,01.164,552
2023-07-08T09:37:53,42.805,6.029,CST-1368DR,4263,4690,11677,01.163,552
2023-07-08T09:40:54,42.805,6.029,CST-1368DR,4263,4689,11673,01.164,552
2023-07-08T09:43:56,42.805,6.029,CST-1368DR,4263,4690,11676,01.163,552
2023-07-08T09:46:57,42.805,6.029,CST-1368DR,4263,4690,11677,01.163,552
2023-07-08T09:49:59,42.805,6.029,CST-1368DR,4263,4690,11677,01.163,552
2023-07-08T09:53:01,42.805,6.029,CST-1368DR,4263,4690,11675,01.163,552
2023-07-08T09:56:02,42.805,6.029,CST-1368DR,4263,4689,11673,01.164,552
2023-07-08T09:59:04,42.805,6.029,CST-1368DR,4263,4689,11673,01.164,552
2023-07-08T10:02:05,42.805,6.029,CST-1368DR,4263,4689,11673,01.164,552
2023-07-08T10:05:07,42.805,6.029,CST-1368DR,4263,4692,11680,01.162,552
2023-07-08T10:08:08,42.805,6.029,CST-1368DR,4263,4690,11675,01.163,552
2023-07-08T10:11:10,42.805,6.029,CST-1368DR,4263,4690,11675,01.163,552
2023-07-08T10:14:12,42.805,6.029,CST-1368DR,4263,4691,11679,01.162,552
2023-07-08T10:17:13,42.805,6.029,CST-1368DR,4263,4690,11676,01.163,552
2023-07-08T10:20:15,42.805,6.029,CST-1368DR,4263,4689,11674,01.164,552
2023-07-08T10:23:16,42.805,6.029,CST-1368DR,4263,4687,11667,01.166,552
2023-07-08T10:26:18,42.805,6.029,CST-1368DR,4263,4688,11671,01.165,552
2023-07-08T10:29:19,42.805,6.029,CST-1368DR,4263,4690,11677,01.163,552
2023-07-08T10:32:21,42.805,6.029,CST-1368DR,4263,4692,11680,01.162,552
2023-07-08T10:35:22,42.805,6.029,CST-1368DR,4263,4692,11680,01.162,552
2023-07-08T10:38:24,42.805,6.029,CST-1368DR,4263,4691,11679,01.162,552
2023-07-08T10:41:25,42.805,6.029,CST-1368DR,4263,4691,11678,01.162,552
2023-07-08T10:44:27,42.805,6.029,CST-1368DR,4263,4691,11679,01.162,552
2023-07-08T10:47:29,42.805,6.029,CST-1368DR,4263,4690,11676,01.163,552
2023-07-08T10:50:30,42.805,6.029,CST-1368DR,4263,4690,11675,01.163,552
2023-07-08T10:53:32,42.805,6.029,CST-1368DR,4263,4690,11675,01.163,552
2023-07-08T10:56:33,42.805,6.029,CST-1368DR,4263,4688,11672,01.164,552
2023-07-08T10:59:35,42.805,6.029,CST-1368DR,4263,4690,11675,01.163,552
2023-07-08T11:02:36,42.805,6.029,CST-1368DR,4263,4690,11676,01.163,552
2023-07-08T11:05:38,42.805,6.029,CST-1368DR,4263,4688,11672,01.164,552
2023-07-08T11:08:40,42.805,6.029,CST-1368DR,4263,4689,11674,01.164,552
2023-07-08T11:11:41,42.805,6.029,CST-1368DR,4263,4688,11671,01.165,552
2023-07-08T11:14:43,42.805,6.029,CST-1368DR,4263,4689,11674,01.164,552
2023-07-08T11:17:44,42.805,6.029,CST-1368DR,4263,4689,11674,01.164,552
2023-07-08T11:20:46,42.805,6.029,CST-1368DR,4263,4688,11670,01.165,552
2023-07-08T11:23:48,42.805,6.029,CST-1368DR,4263,4688,11672,01.164,552
2023-07-08T11:26:49,42.805,6.029,CST-1368DR,4263,4690,11676,01.163,552
2023-07-08T11:29:51,42.805,6.029,CST-1368DR,4263,4689,11674,01.164,552
2023-07-08T11:32:52,42.805,6.029,CST-1368DR,4263,4688,11672,01.164,552
2023-07-08T11:35:54,42.805,6.029,CST-1368DR,4263,4688,11670,01.165,552
2023-07-08T11:38:55,42.805,6.029,CST-1368DR,4263,4688,11670,01.165,552
2023-07-08T11:41:57,42.805,6.029,CST-1368DR,4263,4688,11671,01.165,552
2023-07-08T11:44:59,42.805,6.029,CST-1368DR,4263,4689,11673,01.164,552
2023-07-08T11:48:00,42.805,6.029,CST-1368DR,4263,4687,11667,01.166,552
2023-07-08T11:51:02,42.805,6.029,CST-1368DR,4263,4688,11671,01.165,552
2023-07-08T11:54:03,42.805,6.029,CST-1368DR,4263,4688,11671,01.165,552
2023-07-08T11:57:05,42.805,6.029,CST-1368DR,4263,4689,11672,01.164,552
2023-07-08T12:00:06,42.805,6.029,CST-1368DR,4263,4688,11670,01.165,552
2023-07-08T12:03:08,42.805,6.029,CST-1368DR,4263,4687,11669,01.165,552
2023-07-08T12:06:10,42.805,6.029,CST-1368DR,4263,4688,11670,01.165,552
2023-07-08T12:09:11,42.805,6.029,CST-1368DR,4263,4689,11672,01.164,552
2023-07-08T12:12:13,42.805,6.029,CST-1368DR,4263,4688,11672,01.164,552
2023-07-08T12:15:14,42.805,6.029,CST-1368DR,4263,4688,11670,01.165,552
2023-07-08T12:18:16,42.805,6.029,CST-1368DR,4263,4687,11668,01.166,552
2023-07-08T12:21:18,42.805,6.029,CST-1368DR,4263,4688,11670,01.165,552
2023-07-08T12:24:19,42.805,6.029,CST-1368DR,4263,4688,11671,01.165,552
2023-07-08T12:27:21,42.805,6.029,CST-1368DR,4263,4687,11669,01.165,552
2023-07-08T12:30:23,42.805,6.029,CST-1368DR,4263,4687,11667,01.166,552
2023-07-08T12:33:25,42.805,6.029,CST-1368DR,4263,4688,11670,01.165,552
2023-07-08T12:36:26,42.805,6.029,CST-1368DR,4263,4688,11670,01.165,552
2023-07-08T12:39:28,42.805,6.029,CST-1368DR,4263,4687,11667,01.166,552
2023-07-08T12:42:30,42.805,6.029,CST-1368DR,4263,4687,11669,01.165,552
2023-07-08T12:45:31,42.805,6.029,CST-1368DR,4263,4687,11669,01.165,552
2023-07-08T12:48:33,42.805,6.029,CST-1368DR,4263,4688,11672,01.164,552
2023-07-08T12:51:34,42.805,6.029,CST-1368DR,4263,4688,11670,01.165,552
2023-07-08T12:54:36,42.805,6.029,CST-1368DR,4263,4688,11670,01.165,552
2023-07-08T12:57:38,42.805,6.029,CST-1368DR,4263,4687,11669,01.165,552
2023-07-08T13:00:39,42.805,6.029,CST-1368DR,4263,4688,11670,01.165,552
2023-07-08T13:03:41,42.805,6.029,CST-1368DR,4263,4687,11669,01.165,552
2023-07-08T13:06:42,42.805,6.029,CST-1368DR,4263,4687,11669,01.165,552
2023-07-08T13:09:44,42.805,6.029,CST-1368DR,4263,4686,11665,01.167,552
2023-07-08T13:12:45,42.805,6.029,CST-1368DR,4263,4685,11662,01.168,552
2023-07-08T13:15:47,42.805,6.029,CST-1368DR,4263,4683,11659,01.169,552
2023-07-08T13:18:49,42.805,6.029,CST-1368DR,4263,4686,11667,01.166,552
2023-07-08T13:21:50,42.805,6.029,CST-1368DR,4263,4688,11671,01.165,552
2023-07-08T13:24:52,42.805,6.029,CST-1368DR,4263,4687,11669,01.165,552
2023-07-08T13:27:53,42.805,6.029,CST-1368DR,4263,4688,11670,01.165,552
2023-07-08T13:30:55,42.805,6.029,CST-1368DR,4263,4687,11669,01.165,552
2023-07-08T13:33:56,42.805,6.029,CST-1368DR,4263,4685,11663,01.167,552
2023-07-08T13:36:58,42.805,6.029,CST-1368DR,4262,4683,11661,01.168,552
2023-07-08T13:40:00,42.805,6.029,CST-1368DR,4262,4686,11668,01.166,552
2023-07-08T13:43:01,42.805,6.029,CST-1368DR,4263,4687,11667,01.166,552
2023-07-08T13:46:03,42.805,6.029,CST-1368DR,4263,4686,11667,01.166,552
2023-07-08T13:49:04,42.805,6.029,CST-1368DR,4263,4687,11668,01.166,552
2023-07-08T13:52:06,42.805,6.029,CST-1368DR,4263,4686,11665,01.167,552
2023-07-08T13:55:07,42.805,6.029,CST-1368DR,4263,4686,11667,01.166,552
2023-07-08T13:58:09,42.805,6.029,CST-1368DR,4263,4686,11665,01.167,552
2023-07-08T14:01:11,42.805,6.029,CST-1368DR,4262,4684,11662,01.168,552
2023-07-08T14:04:12,42.805,6.029,CST-1368DR,4263,4681,11654,01.171,552
2023-07-08T14:07:14,42.805,6.029,CST-1368DR,4263,4682,11656,01.170,552
2023-07-08T14:10:15,42.805,6.029,CST-1368DR,4262,4680,11654,01.171,552
2023-07-08T14:13:17,42.805,6.029,CST-1368DR,4263,4682,11656,01.170,552
2023-07-08T14:16:19,42.805,6.029,CST-1368DR,4263,4682,11656,01.170,552
2023-07-08T14:19:20,42.805,6.029,CST-1368DR,4263,4682,11656,01.170,552
2023-07-08T14:22:22,42.805,6.029,CST-1368DR,4263,4686,11666,01.166,552
2023-07-08T14:25:23,42.805,6.029,CST-1368DR,4263,4685,11664,01.167,552
2023-07-08T14:28:25,42.805,6.029,CST-1368DR,4263,4682,11655,01.170,552
2023-07-08T14:31:26,42.805,6.029,CST-1368DR,4263,4682,11657,01.170,552
2023-07-08T14:34:28,42.805,6.029,CST-1368DR,4263,4683,11659,01.169,552
2023-07-08T14:37:30,42.805,6.029,CST-1368DR,4263,4683,11659,01.169,552
2023-07-08T14:40:31,42.805,6.029,CST-1368DR,4263,4682,11657,01.170,552
2023-07-08T14:43:33,42.805,6.029,CST-1368DR,4263,4683,11657,01.170,552
2023-07-08T14:46:34,42.805,6.029,CST-1368DR,4263,4683,11659,01.169,552
2023-07-08T14:49:36,42.805,6.029,CST-1368DR,4262,4682,11659,01.169,552
2023-07-08T14:52:37,42.805,6.029,CST-1368DR,4263,4683,11659,01.169,552
2023-07-08T14:55:39,42.805,6.029,CST-1368DR,4263,4682,11656,01.170,552
2023-07-08T14:58:41,42.805,6.029,CST-1368DR,4263,4683,11658,01.169,552
2023-07-08T15:01:42,42.805,6.029,CST-1368DR,4263,4685,11664,01.167,552
2023-07-08T15:04:44,42.805,6.029,CST-1368DR,4263,4684,11661,01.168,552
2023-07-08T15:07:45,42.805,6.029,CST-1368DR,4263,4682,11656,01.170,552
2023-07-08T15:10:47,42.805,6.029,CST-1368DR,4263,4679,11647,01.173,552
2023-07-08T15:13:49,42.805,6.029,CST-1368DR,4263,4679,11649,01.172,552
2023-07-08T15:16:50,42.805,6.029,CST-1368DR,4263,4679,11649,01.172,552
2023-07-08T15:19:52,42.805,6.029,CST-1368DR,4262,4679,11651,01.172,552
2023-07-08T15:22:53,42.805,6.029,CST-1368DR,4262,4679,11652,01.171,552
2023-07-08T15:25:55,42.805,6.029,CST-1368DR,4263,4680,11650,01.172,552
2023-07-08T15:28:56,42.805,6.029,CST-1368DR,4263,4679,11648,01.173,552
2023-07-08T15:31:58,42.805,6.029,CST-1368DR,4263,4678,11647,01.173,552
2023-07-08T15:35:00,42.805,6.029,CST-1368DR,4262,4679,11652,01.171,553
2023-07-08T15:38:01,42.805,6.029,CST-1368DR,4263,4679,11649,01.172,552
2023-07-08T15:41:03,42.805,6.029,CST-1368DR,4263,4679,11649,01.172,552
2023-07-08T15:44:04,42.805,6.029,CST-1368DR,4262,4680,11653,01.171,552
2023-07-08T15:47:06,42.805,6.029,CST-1368DR,4262,4679,11651,01.172,552
2023-07-08T15:50:08,42.805,6.029,CST-1368DR,4263,4679,11649,01.172,552
2023-07-08T15:53:09,42.805,6.029,CST-1368DR,4263,4679,11648,01.173,552
2023-07-08T15:56:11,42.805,6.029,CST-1368DR,4262,4680,11653,01.171,552
2023-07-08T15:59:12,42.805,6.029,CST-1368DR,4263,4680,11651,01.172,552
2023-07-08T16:02:14,42.805,6.029,CST-1368DR,4262,4679,11652,01.171,552
2023-07-08T16:05:15,42.805,6.029,CST-1368DR,4262,4679,11652,01.171,552
2023-07-08T16:08:17,42.805,6.029,CST-1368DR,4262,4678,11649,01.172,552
2023-07-08T16:11:19,42.805,6.029,CST-1368DR,4262,4680,11654,01.171,552
2023-07-08T16:14:20,42.805,6.029,CST-1368DR,4263,4679,11649,01.172,552
2023-07-08T16:17:22,42.805,6.029,CST-1368DR,4262,4679,11652,01.171,552
2023-07-08T16:20:23,42.805,6.029,CST-1368DR,4262,4678,11649,01.172,552
2023-07-08T16:23:25,42.805,6.029,CST-1368DR,4262,4675,11641,01.175,552
2023-07-08T16:26:26,42.805,6.029,CST-1368DR,4262,4679,11651,01.172,552
2023-07-08T16:29:28,42.805,6.029,CST-1368DR,4262,4680,11654,01.171,552
2023-07-08T16:32:30,42.805,6.029,CST-1368DR,4262,4679,11651,01.172,552
2023-07-08T16:35:32,42.805,6.029,CST-1368DR,4262,4677,11645,01.174,552
2023-07-08T16:38:33,42.805,6.029,CST-1368DR,4262,4678,11648,01.173,552